Content
SEND FEEDBACK

Daily
Averages
Monthly
Summary
United States of America

ANDOVER, SOUTH DAKOTA


Home > North America > United States > South Dakota
Elevation: 1480 feet     Latitude: 45 31N     Longitude: 097 53W

WEATHER
 
SELECT A DAY
Number of Records: 210,947;   Date Range: 1/1/95 - 9/19/14
 
SHARE

PRINT THIS DATA

[ ← Previous Day ]
WEATHER ALMANAC - JANUARY 31, 2013
[ Next Day → ]
[ °C ]   °F
Weather ElementAverageHighLow
Temperature-12.5 °F-6 °F (3:53 pm)-27 °F (11:53 pm)
Dewpoint-20.5 °F-16.6 °F (3:38 am)-32.1 °F (11:53 pm)
Humidity67.6 %81 % (9:53 pm)59 % (3:53 pm)
Barometer30.29 in30.47 in (7:53 pm)30.04 in (3:38 am)
Wind Speed15.3 mph24.2 mph (4:36 am)
Wind Gust28.8 mph (4:16 am)
Weather ElementAverage
Visibility7.2 mi
Wind DirectionWNW (301.3 °)

Weather ElementTotal
Precipitation---
Heating Degree Days81.5 (Base 65)
Averaged from 31 records on January 31, 2013
WEATHER CONDITIONS BREAKOUT
WIND DIRECTION BREAKOUT
WEATHER BY HOUR - JANUARY 31, 2013
[ °C ]   °F
Local TimeTemperatureDewpointHumidityBarometerVisibilityWind DirectionWind SpeedGust SpeedPrecipitationEventsConditions
1:53 AM-11.0 °F-18.9 °F68 %30.12 in10.0 miNW (320°)11.5 mphMostly Cloudy
2:53 AM-9.9 °F-18.0 °F68 %30.14 in8.0 miNNW (330°)19.6 mphOvercast
3:38 AM-9.4 °F-16.6 °F71 %30.04 in2.5 miNNW (330°)19.6 mph27.6 mph0.00 inSnowLight Snow
3:48 AM-9.4 °F-16.6 °F71 %30.04 in3.0 miNNW (330°)19.6 mph0.00 inSnowLight Snow
3:53 AM-9.9 °F-17.0 °F71 %30.16 in3.0 miNNW (330°)18.4 mph0.00 inSnowLight Snow
4:16 AM-9.4 °F-18.4 °F65 %30.05 in2.5 miNNW (330°)19.6 mph28.8 mph0.00 inSnowLight Snow
4:25 AM-9.4 °F-18.4 °F65 %30.06 in3.0 miNNW (330°)18.4 mph0.00 inSnowLight Snow
4:36 AM-11.2 °F-18.4 °F70 %30.07 in2.5 miNW (320°)24.2 mph28.8 mph0.00 inSnowLight Snow
4:53 AM-11.0 °F-18.9 °F68 %30.20 in2.5 miNNW (330°)20.7 mph0.00 inSnowLight Snow
5:02 AM-11.2 °F-18.4 °F70 %30.08 in3.0 miNNW (330°)20.7 mph0.00 inSnowLight Snow
5:19 AM-11.2 °F-18.4 °F70 %30.09 in2.0 miNNW (330°)17.3 mph0.00 inSnowLight Snow
5:53 AM-11.0 °F-20.0 °F64 %30.23 in5.0 miNNW (330°)21.9 mph28.8 mph0.00 inHaze
6:25 AM-13.0 °F-20.2 °F70 %30.13 in10.0 miNW (320°)16.1 mphMostly Cloudy
6:53 AM-13.0 °F-20.9 °F68 %30.27 in9.0 miNNW (330°)18.4 mph26.5 mphOvercast
7:53 AM-11.9 °F-20.0 °F67 %30.32 in10.0 miNW (320°)13.8 mphOvercast
8:53 AM-13.0 °F-22.0 °F64 %30.36 in10.0 miNW (320°)15.0 mphClear
9:53 AM-11.9 °F-22.0 °F61 %30.39 in10.0 miNW (320°)17.3 mphClear
10:53 AM-11.0 °F-20.9 °F62 %30.42 in7.0 miNW (320°)19.6 mphClear
11:53 AM-11.0 °F-20.0 °F64 %30.43 in3.0 miNNW (330°)21.9 mphHaze
12:53 PM-9.0 °F-18.9 °F62 %30.44 in8.0 miNW (320°)18.4 mph26.5 mphClear
1:53 PM-8.0 °F-18.0 °F61 %30.43 in10.0 miNW (320°)20.7 mphClear
2:53 PM-7.1 °F-17.0 °F62 %30.44 in10.0 miNW (320°)19.6 mphClear
3:53 PM-6.0 °F-17.0 °F59 %30.44 in10.0 miNW (310°)17.3 mphClear
4:53 PM-7.1 °F-18.0 °F59 %30.44 in10.0 miNW (310°)15.0 mph20.7 mphClear
5:53 PM-9.9 °F-18.9 °F65 %30.44 in10.0 miWNW (290°)8.1 mphClear
6:53 PM-11.0 °F-20.0 °F64 %30.45 in10.0 miWest (280°)6.9 mphClear
7:53 PM-18.9 °F-25.1 °F74 %30.47 in10.0 miWest (280°)3.5 mphClear
8:53 PM-23.1 °F-27.9 °F78 %30.46 in10.0 miWest (260°)3.5 mphClear
9:53 PM-26.0 °F-29.9 °F81 %30.46 in10.0 miSW (230°)3.5 mphClear
10:53 PM-25.1 °F-29.9 °F78 %30.45 in10.0 miSW (220°)4.6 mphClear
11:53 PM-27.0 °F-32.1 °F77 %30.44 in10.0 miCalmClear
Hourly data recorded from KABR, located miles away from Andover, South Dakota







STORIES FROM OUR PARTNERS